Time,TemperatureF,DewpointF,PressureIn,WindDirection,WindDirectionDegrees,WindSpeedMPH,WindSpeedGustMPH,Humidity,HourlyPrecipIn,Conditions,Clouds,dailyrainin,SolarRadiationWatts/m^2,SoftwareType,DateUTC
2013-03-12 00:00:00,50.9,46.2,30.09,ESE,121,0.0,0.0,84,0.00,,,0.00,0,Wunderground v.1.15,2013-03-12 04:00:00,
2013-03-12 00:02:00,50.9,46.2,30.09,SSE,151,3.0,6.0,84,0.00,,,0.00,0,Wunderground v.1.15,2013-03-12 04:02:00,
2013-03-12 00:07:00,50.9,46.2,30.09,SSE,168,9.0,9.0,84,0.00,,,0.00,0,Wunderground v.1.15,2013-03-12 04:07:00,
2013-03-12 00:12:00,51.2,46.5,30.08,SSE,157,1.0,7.0,84,0.00,,,0.00,0,Wunderground v.1.15,2013-03-12 04:12:00,
2013-03-12 00:17:00,51.2,46.2,30.09,SSE,164,3.0,7.0,83,0.00,,,0.00,0,Wunderground v.1.15,2013-03-12 04:17:00,
2013-03-12 00:20:00,51.3,46.3,30.08,SSE,163,2.0,2.0,83,0.00,,,0.00,0,Wunderground v.1.15,2013-03-12 04:20:00,
2013-03-12 00:25:00,51.2,46.2,30.08,SSE,147,2.0,5.0,83,0.00,,,0.00,0,Wunderground v.1.15,2013-03-12 04:25:00,
2013-03-12 00:30:00,51.1,46.1,30.08,SSE,162,6.0,6.0,83,0.00,,,0.00,0,Wunderground v.1.15,2013-03-12 04:30:00,
2013-03-12 00:36:00,51.1,46.1,30.08,South,186,5.0,9.0,83,0.00,,,0.00,0,Wunderground v.1.15,2013-03-12 04:36:00,
2013-03-12 00:41:00,51.0,46.0,30.07,SE,138,4.0,4.0,83,0.00,,,0.00,0,Wunderground v.1.15,2013-03-12 04:41:00,
2013-03-12 00:46:00,50.9,45.6,30.07,SE,129,2.0,5.0,82,0.00,,,0.00,0,Wunderground v.1.15,2013-03-12 04:46:00,
2013-03-12 00:52:00,50.9,45.9,30.07,SSE,147,5.0,5.0,83,0.00,,,0.00,0,Wunderground v.1.15,2013-03-12 04:52:00,
2013-03-12 00:57:00,50.9,45.9,30.06,South,170,6.0,6.0,83,0.00,,,0.00,0,Wunderground v.1.15,2013-03-12 04:57:00,
2013-03-12 01:04:00,50.9,45.6,30.05,SSE,157,9.0,9.0,82,0.00,,,0.00,0,Wunderground v.1.15,2013-03-12 05:04:00,
2013-03-12 01:09:00,50.8,45.5,30.05,SSE,167,6.0,9.0,82,0.00,,,0.00,0,Wunderground v.1.15,2013-03-12 05:09:00,
2013-03-12 01:15:00,50.8,45.5,30.05,SE,138,4.0,7.0,82,0.00,,,0.00,0,Wunderground v.1.15,2013-03-12 05:15:00,
2013-03-12 01:21:00,50.6,45.3,30.05,SSW,211,4.0,4.0,82,0.00,,,0.00,0,Wunderground v.1.15,2013-03-12 05:21:00,
2013-03-12 01:26:00,50.6,45.3,30.05,South,181,4.0,7.0,82,0.00,,,0.00,0,Wunderground v.1.15,2013-03-12 05:26:00,
2013-03-12 01:32:00,50.6,45.3,30.04,SE,134,11.0,11.0,82,0.00,,,0.00,0,Wunderground v.1.15,2013-03-12 05:32:00,
2013-03-12 01:37:00,50.7,45.4,30.04,ESE,102,11.0,11.0,82,0.00,,,0.00,0,Wunderground v.1.15,2013-03-12 05:37:00,
2013-03-12 01:42:00,50.7,45.4,30.03,SE,128,3.0,4.0,82,0.00,,,0.00,0,Wunderground v.1.15,2013-03-12 05:42:00,
2013-03-12 01:48:00,50.7,45.4,30.03,ENE,73,2.0,6.0,82,0.00,,,0.00,0,Wunderground v.1.15,2013-03-12 05:48:00,
2013-03-12 01:54:00,50.7,45.4,30.03,SE,145,6.0,6.0,82,0.00,,,0.00,0,Wunderground v.1.15,2013-03-12 05:54:00,
2013-03-12 02:00:00,50.6,45.3,30.02,SW,224,2.0,2.0,82,0.00,,,0.00,0,Wunderground v.1.15,2013-03-12 06:00:00,
2013-03-12 02:05:00,50.5,45.2,30.02,SSE,151,3.0,9.0,82,0.00,,,0.00,0,Wunderground v.1.15,2013-03-12 06:05:00,
2013-03-12 02:10:00,50.5,44.9,30.02,SE,144,4.0,4.0,81,0.00,,,0.00,0,Wunderground v.1.15,2013-03-12 06:10:00,
2013-03-12 02:15:00,50.5,44.9,30.01,South,170,7.0,13.0,81,0.00,,,0.00,0,Wunderground v.1.15,2013-03-12 06:15:00,
2013-03-12 02:20:00,50.5,44.9,30.01,ESE,119,5.0,6.0,81,0.00,,,0.00,0,Wunderground v.1.15,2013-03-12 06:20:00,
2013-03-12 02:25:00,50.4,44.5,30.00,SE,129,7.0,15.0,80,0.00,,,0.00,0,Wunderground v.1.15,2013-03-12 06:25:00,
2013-03-12 02:30:00,50.1,44.2,30.00,SW,216,3.0,9.0,80,0.00,,,0.00,0,Wunderground v.1.15,2013-03-12 06:30:00,
2013-03-12 02:35:00,50.1,44.2,30.00,SSE,155,2.0,11.0,80,0.00,,,0.00,0,Wunderground v.1.15,2013-03-12 06:35:00,
2013-03-12 02:40:00,50.1,44.2,30.00,South,189,5.0,5.0,80,0.00,,,0.00,0,Wunderground v.1.15,2013-03-12 06:40:00,
2013-03-12 02:45:00,50.1,44.2,29.98,SSE,167,7.0,15.0,80,0.00,,,0.00,0,Wunderground v.1.15,2013-03-12 06:45:00,
2013-03-12 02:50:00,50.1,44.2,29.96,South,181,1.0,3.0,80,0.00,,,0.00,0,Wunderground v.1.15,2013-03-12 06:50:00,
2013-03-12 02:55:00,50.0,44.1,29.98,SSE,165,1.0,13.0,80,0.00,,,0.00,0,Wunderground v.1.15,2013-03-12 06:55:00,
2013-03-12 03:00:00,49.9,44.0,29.99,SE,131,7.0,7.0,80,0.00,,,0.00,0,Wunderground v.1.15,2013-03-12 07:00:00,
2013-03-12 03:05:00,50.1,44.2,30.01,SSE,165,3.0,11.0,80,0.00,,,0.00,0,Wunderground v.1.15,2013-03-12 07:05:00,
2013-03-12 03:10:00,50.3,44.4,30.00,SSE,153,3.0,3.0,80,0.00,,,0.00,0,Wunderground v.1.15,2013-03-12 07:10:00,
2013-03-12 03:15:00,50.7,44.4,30.00,SSW,212,3.0,8.0,79,0.00,,,0.00,0,Wunderground v.1.15,2013-03-12 07:15:00,
2013-03-12 03:20:00,51.1,44.8,30.00,SE,129,5.0,8.0,79,0.00,,,0.00,0,Wunderground v.1.15,2013-03-12 07:20:00,
2013-03-12 03:25:00,51.7,45.4,30.00,ESE,118,5.0,12.0,79,0.00,,,0.00,0,Wunderground v.1.15,2013-03-12 07:25:00,
2013-03-12 03:30:00,52.1,45.4,29.99,SSW,207,3.0,3.0,78,0.00,,,0.00,0,Wunderground v.1.15,2013-03-12 07:30:00,
2013-03-12 03:35:00,52.2,45.5,30.00,SSE,159,0.0,12.0,78,0.00,,,0.00,0,Wunderground v.1.15,2013-03-12 07:35:00,
2013-03-12 03:40:00,52.3,45.3,29.99,SSE,157,2.0,6.0,77,0.00,,,0.00,0,Wunderground v.1.15,2013-03-12 07:40:00,
2013-03-12 03:45:00,52.4,45.4,29.99,South,171,3.0,10.0,77,0.00,,,0.00,0,Wunderground v.1.15,2013-03-12 07:45:00,
2013-03-12 03:50:00,52.5,45.2,29.98,SSE,148,3.0,4.0,76,0.00,,,0.00,0,Wunderground v.1.15,2013-03-12 07:50:00,
2013-03-12 03:55:00,52.6,45.2,29.98,SE,144,6.0,11.0,76,0.00,,,0.00,0,Wunderground v.1.15,2013-03-12 07:55:00,
2013-03-12 04:00:00,52.5,45.2,29.98,SSE,152,7.0,7.0,76,0.00,,,0.00,0,Wunderground v.1.15,2013-03-12 08:00:00,
2013-03-12 04:05:00,52.5,44.8,29.98,SSE,156,6.0,9.0,75,0.00,,,0.00,0,Wunderground v.1.15,2013-03-12 08:05:00,
2013-03-12 04:10:00,52.6,44.9,29.99,SW,215,2.0,8.0,75,0.00,,,0.00,0,Wunderground v.1.15,2013-03-12 08:10:00,
2013-03-12 04:15:00,52.7,45.0,29.98,SSE,153,4.0,9.0,75,0.00,,,0.00,0,Wunderground v.1.15,2013-03-12 08:15:00,
2013-03-12 04:20:00,52.6,44.9,29.98,SSE,161,3.0,5.0,75,0.00,,,0.00,0,Wunderground v.1.15,2013-03-12 08:20:00,
2013-03-12 04:25:00,52.7,45.0,29.98,SSE,154,7.0,14.0,75,0.00,,,0.00,0,Wunderground v.1.15,2013-03-12 08:25:00,
2013-03-12 04:30:00,52.6,44.9,29.98,South,171,5.0,9.0,75,0.00,,,0.00,0,Wunderground v.1.15,2013-03-12 08:30:00,
2013-03-12 04:35:00,52.9,44.8,29.98,SE,133,2.0,9.0,74,0.00,,,0.00,0,Wunderground v.1.15,2013-03-12 08:35:00,
2013-03-12 04:40:00,52.8,44.7,29.97,South,188,1.0,1.0,74,0.00,,,0.00,0,Wunderground v.1.15,2013-03-12 08:40:00,
2013-03-12 04:45:00,52.9,44.8,29.97,South,171,2.0,14.0,74,0.00,,,0.00,0,Wunderground v.1.15,2013-03-12 08:45:00,
2013-03-12 04:50:00,52.7,44.6,29.96,SE,133,6.0,8.0,74,0.00,,,0.00,0,Wunderground v.1.15,2013-03-12 08:50:00,
2013-03-12 04:55:00,52.6,44.5,29.96,South,181,6.0,11.0,74,0.00,,,0.00,0,Wunderground v.1.15,2013-03-12 08:55:00,
2013-03-12 05:00:00,52.4,44.4,29.97,SE,129,5.0,5.0,74,0.00,,,0.00,0,Wunderground v.1.15,2013-03-12 09:00:00,
2013-03-12 05:05:00,52.4,44.7,29.96,South,177,4.0,10.0,75,0.00,,,0.00,0,Wunderground v.1.15,2013-03-12 09:05:00,
2013-03-12 05:10:00,52.3,44.6,29.96,SSE,148,5.0,5.0,75,0.00,,,0.00,0,Wunderground v.1.15,2013-03-12 09:10:00,
2013-03-12 05:15:00,52.2,44.5,29.96,SE,145,1.0,6.0,75,0.00,,,0.00,0,Wunderground v.1.15,2013-03-12 09:15:00,
2013-03-12 05:20:00,52.1,44.8,29.96,SE,146,1.0,3.0,76,0.00,,,0.00,0,Wunderground v.1.15,2013-03-12 09:20:00,
2013-03-12 05:25:00,52.0,44.3,29.95,ESE,110,3.0,10.0,75,0.00,,,0.00,0,Wunderground v.1.15,2013-03-12 09:25:00,
2013-03-12 05:30:00,51.9,44.2,29.95,SSE,166,3.0,4.0,75,0.00,,,0.00,0,Wunderground v.1.15,2013-03-12 09:30:00,
2013-03-12 05:35:00,51.6,44.3,29.96,SSE,156,2.0,7.0,76,0.00,,,0.00,0,Wunderground v.1.15,2013-03-12 09:35:00,
2013-03-12 05:40:00,51.4,44.4,29.96,SSE,157,4.0,6.0,77,0.00,,,0.00,0,Wunderground v.1.15,2013-03-12 09:40:00,
2013-03-12 05:45:00,51.3,44.3,29.95,SSE,168,2.0,9.0,77,0.00,,,0.00,0,Wunderground v.1.15,2013-03-12 09:45:00,
2013-03-12 05:50:00,51.2,44.2,29.95,ESE,106,3.0,5.0,77,0.00,,,0.00,0,Wunderground v.1.15,2013-03-12 09:50:00,
2013-03-12 05:55:00,51.0,44.4,29.95,SSE,150,3.0,8.0,78,0.00,,,0.00,0,Wunderground v.1.15,2013-03-12 09:55:00,
2013-03-12 06:00:00,50.9,44.6,29.95,SSE,161,2.0,5.0,79,0.00,,,0.00,0,Wunderground v.1.15,2013-03-12 10:00:00,
2013-03-12 06:05:00,51.0,44.7,29.96,SSE,148,2.0,10.0,79,0.00,,,0.00,0,Wunderground v.1.15,2013-03-12 10:05:00,
2013-03-12 06:10:00,50.9,44.6,29.96,SSE,167,2.0,4.0,79,0.00,,,0.00,0,Wunderground v.1.15,2013-03-12 10:10:00,
2013-03-12 06:15:00,50.9,44.6,29.95,SE,131,3.0,5.0,79,0.00,,,0.00,0,Wunderground v.1.15,2013-03-12 10:15:00,
2013-03-12 06:20:00,50.8,44.5,29.95,SE,141,2.0,3.0,79,0.00,,,0.00,0,Wunderground v.1.15,2013-03-12 10:20:00,
2013-03-12 06:25:00,50.9,44.6,29.96,SE,132,1.0,6.0,79,0.00,,,0.00,0,Wunderground v.1.15,2013-03-12 10:25:00,
2013-03-12 06:30:00,51.0,44.7,29.95,SE,133,2.0,5.0,79,0.00,,,0.00,0,Wunderground v.1.15,2013-03-12 10:30:00,
2013-03-12 06:35:00,51.0,44.7,29.96,SSE,149,4.0,8.0,79,0.00,,,0.00,0,Wunderground v.1.15,2013-03-12 10:35:00,
2013-03-12 06:40:00,51.1,44.8,29.96,SSE,162,3.0,3.0,79,0.00,,,0.00,0,Wunderground v.1.15,2013-03-12 10:40:00,
2013-03-12 06:45:00,51.2,44.9,29.96,SE,136,5.0,7.0,79,0.00,,,0.00,0,Wunderground v.1.15,2013-03-12 10:45:00,
2013-03-12 06:50:00,51.4,45.1,29.96,SSE,148,4.0,7.0,79,0.00,,,0.00,0,Wunderground v.1.15,2013-03-12 10:50:00,
2013-03-12 06:55:00,51.4,45.1,29.95,South,172,4.0,12.0,79,0.00,,,0.00,0,Wunderground v.1.15,2013-03-12 10:55:00,
2013-03-12 07:00:00,51.3,45.0,29.95,SSE,157,4.0,6.0,79,0.00,,,0.00,0,Wunderground v.1.15,2013-03-12 11:00:00,
2013-03-12 07:05:00,51.1,44.8,29.94,SE,142,3.0,13.0,79,0.00,,,0.00,0,Wunderground v.1.15,2013-03-12 11:05:00,
2013-03-12 07:10:00,51.2,45.2,29.94,SSE,160,5.0,7.0,80,0.00,,,0.00,0,Wunderground v.1.15,2013-03-12 11:10:00,
2013-03-12 07:15:00,51.4,45.4,29.95,East,79,2.0,14.0,80,0.00,,,0.00,0,Wunderground v.1.15,2013-03-12 11:15:00,
2013-03-12 07:20:00,51.4,45.4,29.94,SE,134,1.0,1.0,80,0.00,,,0.00,0,Wunderground v.1.15,2013-03-12 11:20:00,
2013-03-12 07:25:00,51.2,45.2,29.94,SSW,208,3.0,9.0,80,0.00,,,0.00,0,Wunderground v.1.15,2013-03-12 11:25:00,
2013-03-12 07:30:00,51.1,45.1,29.94,SSE,153,1.0,5.0,80,0.00,,,0.00,0,Wunderground v.1.15,2013-03-12 11:30:00,
2013-03-12 07:35:00,51.0,45.0,29.94,SE,129,4.0,9.0,80,0.00,,,0.00,0,Wunderground v.1.15,2013-03-12 11:35:00,
2013-03-12 07:40:00,51.0,45.4,29.94,South,175,5.0,6.0,81,0.00,,,0.00,0,Wunderground v.1.15,2013-03-12 11:40:00,
2013-03-12 07:45:00,51.0,45.4,29.94,SSW,192,11.0,11.0,81,0.00,,,0.00,0,Wunderground v.1.15,2013-03-12 11:45:00,
2013-03-12 07:50:00,51.1,45.5,29.95,South,179,9.0,11.0,81,0.00,,,0.00,0,Wunderground v.1.15,2013-03-12 11:50:00,
2013-03-12 07:55:00,51.1,45.5,29.95,SSE,167,7.0,11.0,81,0.00,,,0.00,0,Wunderground v.1.15,2013-03-12 11:55:00,
2013-03-12 08:00:00,51.3,46.0,29.94,South,177,4.0,7.0,82,0.00,,,0.00,0,Wunderground v.1.15,2013-03-12 12:00:00,
2013-03-12 08:05:00,51.3,46.0,29.94,South,175,3.0,9.0,82,0.00,,,0.00,0,Wunderground v.1.15,2013-03-12 12:05:00,
2013-03-12 08:10:00,51.3,46.0,29.94,SSE,152,6.0,6.0,82,0.00,,,0.00,0,Wunderground v.1.15,2013-03-12 12:10:00,
2013-03-12 08:15:00,51.4,46.1,29.94,SSE,156,7.0,8.0,82,0.00,,,0.00,0,Wunderground v.1.15,2013-03-12 12:15:00,
2013-03-12 08:20:00,51.5,46.2,29.94,SE,142,15.0,15.0,82,0.00,,,0.00,0,Wunderground v.1.15,2013-03-12 12:20:00,
2013-03-12 08:25:00,51.6,46.3,29.94,SSW,195,4.0,15.0,82,0.00,,,0.00,0,Wunderground v.1.15,2013-03-12 12:25:00,
2013-03-12 08:30:00,51.5,46.2,29.93,SSE,162,4.0,4.0,82,0.00,,,0.00,0,Wunderground v.1.15,2013-03-12 12:30:00,
2013-03-12 08:35:00,51.6,46.6,29.93,SSE,166,3.0,10.0,83,0.00,,,0.00,0,Wunderground v.1.15,2013-03-12 12:35:00,
2013-03-12 08:40:00,51.5,46.2,29.93,South,172,8.0,8.0,82,0.00,,,0.00,0,Wunderground v.1.15,2013-03-12 12:40:00,
2013-03-12 08:46:00,51.6,46.6,29.94,SE,141,1.0,12.0,83,0.00,,,0.00,0,Wunderground v.1.15,2013-03-12 12:46:00,
2013-03-12 08:51:00,51.6,46.6,29.93,SSE,154,3.0,12.0,83,0.00,,,0.00,0,Wunderground v.1.15,2013-03-12 12:51:00,
2013-03-12 08:56:00,51.6,46.6,29.93,South,173,9.0,12.0,83,0.00,,,0.00,0,Wunderground v.1.15,2013-03-12 12:56:00,
2013-03-12 09:00:00,51.6,46.6,29.93,SSE,158,3.0,4.0,83,0.00,,,0.00,0,Wunderground v.1.15,2013-03-12 13:00:00,
2013-03-12 09:06:00,51.6,46.6,29.93,South,186,4.0,9.0,83,0.00,,,0.00,0,Wunderground v.1.15,2013-03-12 13:06:00,
2013-03-12 09:11:00,51.6,46.6,29.93,SSE,163,7.0,7.0,83,0.00,,,0.00,0,Wunderground v.1.15,2013-03-12 13:11:00,
2013-03-12 09:16:00,51.7,46.7,29.93,SSW,197,3.0,10.0,83,0.00,,,0.00,0,Wunderground v.1.15,2013-03-12 13:16:00,
2013-03-12 09:21:00,51.8,47.1,29.93,SE,146,6.0,6.0,84,0.00,,,0.00,0,Wunderground v.1.15,2013-03-12 13:21:00,
2013-03-12 09:26:00,51.9,47.2,29.92,SSW,199,6.0,11.0,84,0.00,,,0.00,0,Wunderground v.1.15,2013-03-12 13:26:00,
2013-03-12 09:31:00,52.1,47.4,29.92,SSE,161,5.0,5.0,84,0.00,,,0.00,0,Wunderground v.1.15,2013-03-12 13:31:00,
2013-03-12 09:36:00,52.1,47.4,29.92,SSW,206,2.0,6.0,84,0.00,,,0.00,0,Wunderground v.1.15,2013-03-12 13:36:00,
2013-03-12 09:41:00,52.3,47.6,29.92,SSW,212,9.0,11.0,84,0.00,,,0.00,0,Wunderground v.1.15,2013-03-12 13:41:00,
2013-03-12 09:46:00,52.3,47.6,29.91,SSE,158,6.0,11.0,84,0.00,,,0.00,0,Wunderground v.1.15,2013-03-12 13:46:00,
2013-03-12 09:51:00,52.3,47.6,29.91,South,170,6.0,6.0,84,0.00,,,0.00,0,Wunderground v.1.15,2013-03-12 13:51:00,
2013-03-12 09:56:00,52.3,47.6,29.90,SSE,147,6.0,14.0,84,0.00,,,0.00,0,Wunderground v.1.15,2013-03-12 13:56:00,
2013-03-12 10:01:00,52.3,47.6,29.90,SSE,155,6.0,11.0,84,0.00,,,0.00,0,Wunderground v.1.15,2013-03-12 14:01:00,
2013-03-12 10:06:00,52.2,47.5,29.90,SE,146,3.0,11.0,84,0.00,,,0.00,0,Wunderground v.1.15,2013-03-12 14:06:00,
2013-03-12 10:11:00,52.0,47.3,29.90,SSE,168,3.0,7.0,84,0.00,,,0.00,0,Wunderground v.1.15,2013-03-12 14:11:00,
2013-03-12 10:16:00,51.8,47.1,29.89,SSE,149,5.0,14.0,84,0.00,,,0.00,0,Wunderground v.1.15,2013-03-12 14:16:00,
2013-03-12 10:21:00,51.7,47.0,29.90,SE,131,6.0,7.0,84,0.00,,,0.00,0,Wunderground v.1.15,2013-03-12 14:21:00,
2013-03-12 10:26:00,51.6,46.9,29.90,South,169,4.0,12.0,84,0.00,,,0.00,0,Wunderground v.1.15,2013-03-12 14:26:00,
2013-03-12 10:31:00,51.8,47.1,29.89,South,182,8.0,12.0,84,0.00,,,0.00,0,Wunderground v.1.15,2013-03-12 14:31:00,
2013-03-12 10:36:00,51.7,47.0,29.89,South,176,9.0,12.0,84,0.00,,,0.00,0,Wunderground v.1.15,2013-03-12 14:36:00,
2013-03-12 10:41:00,51.8,47.1,29.89,SSE,163,7.0,7.0,84,0.00,,,0.00,0,Wunderground v.1.15,2013-03-12 14:41:00,
2013-03-12 10:46:00,51.7,47.0,29.89,South,180,6.0,7.0,84,0.00,,,0.00,0,Wunderground v.1.15,2013-03-12 14:46:00,
2013-03-12 10:52:00,51.8,47.1,29.89,SE,141,5.0,10.0,84,0.00,,,0.00,0,Wunderground v.1.15,2013-03-12 14:52:00,
2013-03-12 10:57:00,52.0,47.3,29.88,SSE,156,6.0,10.0,84,0.00,,,0.00,0,Wunderground v.1.15,2013-03-12 14:57:00,
2013-03-12 11:02:00,51.9,47.2,29.88,SE,131,2.0,9.0,84,0.00,,,0.00,0,Wunderground v.1.15,2013-03-12 15:02:00,
2013-03-12 11:07:00,52.0,47.3,29.87,SE,143,3.0,9.0,84,0.00,,,0.00,0,Wunderground v.1.15,2013-03-12 15:07:00,
2013-03-12 11:12:00,51.8,47.1,29.87,SE,133,14.0,14.0,84,0.00,,,0.00,0,Wunderground v.1.15,2013-03-12 15:12:00,
2013-03-12 11:17:00,51.9,47.2,29.87,SE,134,1.0,14.0,84,0.00,,,0.00,0,Wunderground v.1.15,2013-03-12 15:17:00,
2013-03-12 11:22:00,51.7,47.0,29.87,SSE,147,2.0,6.0,84,0.00,,,0.00,0,Wunderground v.1.15,2013-03-12 15:22:00,
2013-03-12 11:28:00,51.5,46.8,29.86,SSE,154,1.0,11.0,84,0.00,,,0.00,0,Wunderground v.1.15,2013-03-12 15:28:00,
2013-03-12 11:33:00,51.5,46.8,29.86,SSE,157,4.0,11.0,84,0.00,,,0.00,0,Wunderground v.1.15,2013-03-12 15:33:00,
2013-03-12 11:38:00,51.6,47.2,29.86,SE,128,5.0,13.0,85,0.00,,,0.00,0,Wunderground v.1.15,2013-03-12 15:38:00,
2013-03-12 11:43:00,51.5,46.8,29.85,South,181,2.0,8.0,84,0.00,,,0.00,0,Wunderground v.1.15,2013-03-12 15:43:00,
2013-03-12 11:48:00,51.6,46.9,29.85,SSW,202,1.0,12.0,84,0.00,,,0.00,0,Wunderground v.1.15,2013-03-12 15:48:00,
2013-03-12 11:53:00,51.6,46.9,29.85,SSE,159,5.0,11.0,84,0.00,,,0.00,0,Wunderground v.1.15,2013-03-12 15:53:00,
2013-03-12 11:58:00,51.9,47.5,29.85,SE,140,6.0,11.0,85,0.00,,,0.00,0,Wunderground v.1.15,2013-03-12 15:58:00,
2013-03-12 12:03:00,52.0,47.6,29.85,SSW,210,3.0,10.0,85,0.00,,,0.00,0,Wunderground v.1.15,2013-03-12 16:03:00,
2013-03-12 12:08:00,52.1,47.7,29.85,SW,226,1.0,12.0,85,0.00,,,0.00,0,Wunderground v.1.15,2013-03-12 16:08:00,
2013-03-12 12:13:00,52.4,48.0,29.85,SE,128,1.0,12.0,85,0.00,,,0.00,0,Wunderground v.1.15,2013-03-12 16:13:00,
2013-03-12 12:18:00,52.3,47.9,29.84,SE,136,6.0,13.0,85,0.00,,,0.00,0,Wunderground v.1.15,2013-03-12 16:18:00,
2013-03-12 12:23:00,52.4,48.0,29.85,South,175,9.0,15.0,85,0.00,,,0.00,0,Wunderground v.1.15,2013-03-12 16:23:00,
2013-03-12 12:28:00,52.2,47.8,29.84,SSE,158,8.0,15.0,85,0.00,,,0.00,0,Wunderground v.1.15,2013-03-12 16:28:00,
2013-03-12 12:34:00,52.0,47.6,29.84,SE,130,5.0,15.0,85,0.00,,,0.00,0,Wunderground v.1.15,2013-03-12 16:34:00,
2013-03-12 12:39:00,51.9,47.5,29.84,South,180,4.0,15.0,85,0.00,,,0.00,0,Wunderground v.1.15,2013-03-12 16:39:00,
2013-03-12 12:44:00,51.7,47.3,29.83,SE,142,10.0,16.0,85,0.00,,,0.00,0,Wunderground v.1.15,2013-03-12 16:44:00,
2013-03-12 12:49:00,51.6,47.2,29.83,South,171,3.0,16.0,85,0.00,,,0.00,0,Wunderground v.1.15,2013-03-12 16:49:00,
2013-03-12 12:54:00,51.6,47.2,29.82,SSE,160,5.0,7.0,85,0.00,,,0.00,0,Wunderground v.1.15,2013-03-12 16:54:00,
2013-03-12 12:59:00,51.4,47.0,29.82,SE,146,6.0,10.0,85,0.00,,,0.00,0,Wunderground v.1.15,2013-03-12 16:59:00,
2013-03-12 13:04:00,51.4,47.0,29.82,SE,141,10.0,13.0,85,0.00,,,0.00,0,Wunderground v.1.15,2013-03-12 17:04:00,
2013-03-12 13:09:00,51.3,46.9,29.81,South,180,7.0,17.0,85,0.00,,,0.00,0,Wunderground v.1.15,2013-03-12 17:09:00,
2013-03-12 13:14:00,51.3,46.9,29.81,SE,130,6.0,11.0,85,0.00,,,0.00,0,Wunderground v.1.15,2013-03-12 17:14:00,
2013-03-12 13:19:00,51.3,46.9,29.81,SSE,153,8.0,15.0,85,0.00,,,0.00,0,Wunderground v.1.15,2013-03-12 17:19:00,
2013-03-12 13:24:00,51.4,47.0,29.80,SE,146,3.0,18.0,85,0.00,,,0.00,0,Wunderground v.1.15,2013-03-12 17:24:00,
2013-03-12 13:29:00,51.6,47.5,29.80,SE,127,2.0,18.0,86,0.00,,,0.00,0,Wunderground v.1.15,2013-03-12 17:29:00,
2013-03-12 13:34:00,51.7,47.6,29.79,SE,134,6.0,18.0,86,0.00,,,0.00,0,Wunderground v.1.15,2013-03-12 17:34:00,
2013-03-12 13:39:00,51.8,47.7,29.78,ENE,62,3.0,18.0,86,0.00,,,0.00,0,Wunderground v.1.15,2013-03-12 17:39:00,
2013-03-12 13:44:00,52.1,48.0,29.78,South,189,0.0,10.0,86,0.00,,,0.00,0,Wunderground v.1.15,2013-03-12 17:44:00,
2013-03-12 13:49:00,52.1,48.0,29.78,SE,144,4.0,22.0,86,0.00,,,0.00,0,Wunderground v.1.15,2013-03-12 17:49:00,
2013-03-12 13:54:00,52.0,47.9,29.78,SSE,147,5.0,14.0,86,0.00,,,0.00,0,Wunderground v.1.15,2013-03-12 17:54:00,
2013-03-12 13:59:00,51.8,47.7,29.77,SE,141,9.0,14.0,86,0.00,,,0.00,0,Wunderground v.1.15,2013-03-12 17:59:00,
2013-03-12 14:04:00,51.8,47.7,29.77,SSE,150,1.0,11.0,86,0.00,,,0.00,0,Wunderground v.1.15,2013-03-12 18:04:00,
2013-03-12 14:09:00,51.9,47.8,29.76,East,89,3.0,12.0,86,0.00,,,0.00,0,Wunderground v.1.15,2013-03-12 18:09:00,
2013-03-12 14:14:00,52.1,48.0,29.76,SE,145,5.0,15.0,86,0.00,,,0.00,0,Wunderground v.1.15,2013-03-12 18:14:00,
2013-03-12 14:19:00,52.0,47.9,29.75,SE,143,3.0,16.0,86,0.00,,,0.00,0,Wunderground v.1.15,2013-03-12 18:19:00,
2013-03-12 14:24:00,51.8,47.7,29.75,SE,138,4.0,11.0,86,0.00,,,0.00,0,Wunderground v.1.15,2013-03-12 18:24:00,
2013-03-12 14:29:00,51.9,47.8,29.74,SE,130,3.0,20.0,86,0.00,,,0.00,0,Wunderground v.1.15,2013-03-12 18:29:00,
2013-03-12 14:34:00,52.0,47.9,29.74,SSE,161,6.0,13.0,86,0.00,,,0.00,0,Wunderground v.1.15,2013-03-12 18:34:00,
2013-03-12 14:39:00,52.0,47.9,29.73,SSE,153,4.0,18.0,86,0.00,,,0.00,0,Wunderground v.1.15,2013-03-12 18:39:00,
2013-03-12 14:44:00,51.9,47.8,29.72,SSW,209,4.0,16.0,86,0.00,,,0.00,0,Wunderground v.1.15,2013-03-12 18:44:00,
2013-03-12 14:49:00,52.0,47.9,29.72,SSE,161,9.0,16.0,86,0.00,,,0.00,0,Wunderground v.1.15,2013-03-12 18:49:00,
2013-03-12 14:54:00,51.9,47.8,29.72,ESE,108,12.0,15.0,86,0.00,,,0.00,0,Wunderground v.1.15,2013-03-12 18:54:00,
2013-03-12 14:59:00,51.9,48.2,29.72,SSW,209,6.0,21.0,87,0.00,,,0.00,0,Wunderground v.1.15,2013-03-12 18:59:00,
2013-03-12 15:04:00,52.1,48.0,29.71,SSE,168,3.0,15.0,86,0.00,,,0.00,0,Wunderground v.1.15,2013-03-12 19:04:00,
2013-03-12 15:09:00,52.1,48.3,29.70,ESE,118,3.0,15.0,87,0.00,,,0.00,0,Wunderground v.1.15,2013-03-12 19:09:00,
2013-03-12 15:14:00,52.2,48.4,29.69,SE,146,18.0,27.0,87,0.00,,,0.00,0,Wunderground v.1.15,2013-03-12 19:14:00,
2013-03-12 15:19:00,52.2,48.4,29.69,SSE,156,7.0,27.0,87,0.00,,,0.00,0,Wunderground v.1.15,2013-03-12 19:19:00,
2013-03-12 15:24:00,52.5,48.7,29.69,ENE,78,4.0,15.0,87,0.00,,,0.00,0,Wunderground v.1.15,2013-03-12 19:24:00,
2013-03-12 15:29:00,52.5,48.7,29.69,SSE,153,4.0,15.0,87,0.00,,,0.00,0,Wunderground v.1.15,2013-03-12 19:29:00,
2013-03-12 15:35:00,52.4,48.6,29.69,SE,125,5.0,15.0,87,0.00,,,0.00,0,Wunderground v.1.15,2013-03-12 19:35:00,
2013-03-12 15:40:00,52.6,48.8,29.69,South,178,8.0,9.0,87,0.00,,,0.00,0,Wunderground v.1.15,2013-03-12 19:40:00,
2013-03-12 15:45:00,53.1,49.3,29.69,SE,146,4.0,17.0,87,0.00,,,0.00,0,Wunderground v.1.15,2013-03-12 19:45:00,
2013-03-12 15:50:00,53.5,49.7,29.70,SSE,156,4.0,4.0,87,0.00,,,0.00,0,Wunderground v.1.15,2013-03-12 19:50:00,
2013-03-12 15:55:00,53.6,49.8,29.69,WSW,246,3.0,20.0,87,0.00,,,0.00,0,Wunderground v.1.15,2013-03-12 19:55:00,
2013-03-12 16:00:00,53.7,49.9,29.70,South,171,6.0,6.0,87,0.00,,,0.00,0,Wunderground v.1.15,2013-03-12 20:00:00,
2013-03-12 16:05:00,53.8,50.0,29.69,SSE,167,6.0,9.0,87,0.00,,,0.00,0,Wunderground v.1.15,2013-03-12 20:05:00,
2013-03-12 16:10:00,54.1,50.3,29.70,SE,145,3.0,5.0,87,0.00,,,0.00,0,Wunderground v.1.15,2013-03-12 20:10:00,
2013-03-12 16:15:00,54.5,50.4,29.70,South,174,9.0,13.0,86,0.00,,,0.00,0,Wunderground v.1.15,2013-03-12 20:15:00,
2013-03-12 16:20:00,54.6,50.2,29.69,SSW,197,10.0,10.0,85,0.00,,,0.00,0,Wunderground v.1.15,2013-03-12 20:20:00,
2013-03-12 16:25:00,54.6,50.2,29.68,SSE,160,2.0,15.0,85,0.00,,,0.00,0,Wunderground v.1.15,2013-03-12 20:25:00,
2013-03-12 16:30:00,54.7,50.3,29.69,SSE,165,11.0,11.0,85,0.00,,,0.00,0,Wunderground v.1.15,2013-03-12 20:30:00,
2013-03-12 16:35:00,54.9,50.5,29.69,SSW,198,7.0,15.0,85,0.00,,,0.00,0,Wunderground v.1.15,2013-03-12 20:35:00,
2013-03-12 16:40:00,54.7,50.3,29.70,SW,225,3.0,6.0,85,0.00,,,0.00,0,Wunderground v.1.15,2013-03-12 20:40:00,
2013-03-12 16:45:00,54.7,50.0,29.70,SSW,208,4.0,13.0,84,0.00,,,0.00,0,Wunderground v.1.15,2013-03-12 20:45:00,
2013-03-12 16:50:00,54.7,50.0,29.70,SW,221,6.0,10.0,84,0.00,,,0.00,0,Wunderground v.1.15,2013-03-12 20:50:00,
2013-03-12 16:55:00,54.6,49.9,29.70,SSE,163,8.0,20.0,84,0.00,,,0.00,0,Wunderground v.1.15,2013-03-12 20:55:00,
2013-03-12 17:00:00,54.5,49.8,29.70,South,182,8.0,8.0,84,0.00,,,0.00,0,Wunderground v.1.15,2013-03-12 21:00:00,
2013-03-12 17:05:00,54.6,49.9,29.70,SSW,198,11.0,16.0,84,0.00,,,0.00,0,Wunderground v.1.15,2013-03-12 21:05:00,
2013-03-12 17:10:00,54.5,49.8,29.71,South,178,10.0,12.0,84,0.00,,,0.00,0,Wunderground v.1.15,2013-03-12 21:10:00,
2013-03-12 17:15:00,54.6,49.9,29.71,SSE,160,0.0,12.0,84,0.00,,,0.00,0,Wunderground v.1.15,2013-03-12 21:15:00,
2013-03-12 17:20:00,54.6,49.9,29.71,SSW,198,8.0,8.0,84,0.00,,,0.00,0,Wunderground v.1.15,2013-03-12 21:20:00,
2013-03-12 17:25:00,54.6,49.9,29.71,South,188,6.0,11.0,84,0.00,,,0.00,0,Wunderground v.1.15,2013-03-12 21:25:00,
2013-03-12 17:30:00,54.5,49.8,29.71,SSE,163,2.0,9.0,84,0.00,,,0.00,0,Wunderground v.1.15,2013-03-12 21:30:00,
2013-03-12 17:35:00,54.6,49.9,29.71,SSE,153,9.0,13.0,84,0.00,,,0.00,0,Wunderground v.1.15,2013-03-12 21:35:00,
2013-03-12 17:40:00,54.6,49.9,29.71,SSE,165,8.0,8.0,84,0.00,,,0.00,0,Wunderground v.1.15,2013-03-12 21:40:00,
2013-03-12 17:45:00,54.5,49.8,29.71,SSE,150,2.0,8.0,84,0.00,,,0.00,0,Wunderground v.1.15,2013-03-12 21:45:00,
2013-03-12 17:50:00,54.6,49.9,29.72,South,180,5.0,7.0,84,0.00,,,0.00,0,Wunderground v.1.15,2013-03-12 21:50:00,
2013-03-12 17:55:00,54.8,50.1,29.72,South,180,4.0,9.0,84,0.00,,,0.00,0,Wunderground v.1.15,2013-03-12 21:55:00,
2013-03-12 18:00:00,54.7,50.0,29.72,WSW,243,3.0,5.0,84,0.00,,,0.00,0,Wunderground v.1.15,2013-03-12 22:00:00,
2013-03-12 18:05:00,54.8,50.1,29.72,SW,221,2.0,7.0,84,0.00,,,0.00,0,Wunderground v.1.15,2013-03-12 22:05:00,
2013-03-12 18:10:00,54.9,50.2,29.72,SSW,206,4.0,10.0,84,0.00,,,0.00,0,Wunderground v.1.15,2013-03-12 22:10:00,
2013-03-12 18:15:00,55.0,50.3,29.72,South,177,4.0,10.0,84,0.00,,,0.00,0,Wunderground v.1.15,2013-03-12 22:15:00,
2013-03-12 18:20:00,55.0,50.3,29.73,South,177,1.0,3.0,84,0.00,,,0.00,0,Wunderground v.1.15,2013-03-12 22:20:00,
2013-03-12 18:25:00,55.0,50.3,29.73,SE,133,5.0,6.0,84,0.00,,,0.00,0,Wunderground v.1.15,2013-03-12 22:25:00,
2013-03-12 18:30:00,55.1,50.7,29.73,SSW,196,3.0,6.0,85,0.00,,,0.00,0,Wunderground v.1.15,2013-03-12 22:30:00,
2013-03-12 18:35:00,55.1,50.4,29.74,SSW,197,2.0,6.0,84,0.00,,,0.00,0,Wunderground v.1.15,2013-03-12 22:35:00,
2013-03-12 18:40:00,55.2,50.4,29.74,South,186,1.0,4.0,84,0.00,,,0.00,0,Wunderground v.1.15,2013-03-12 22:40:00,
2013-03-12 18:45:00,55.2,50.8,29.74,SW,216,1.0,7.0,85,0.00,,,0.00,0,Wunderground v.1.15,2013-03-12 22:45:00,
2013-03-12 18:50:00,55.2,50.4,29.74,SW,214,4.0,6.0,84,0.00,,,0.00,0,Wunderground v.1.15,2013-03-12 22:50:00,
2013-03-12 18:55:00,55.2,50.8,29.75,SSW,211,4.0,6.0,85,0.00,,,0.00,0,Wunderground v.1.15,2013-03-12 22:55:00,
2013-03-12 19:01:00,55.3,50.5,29.76,NW,310,2.0,5.0,84,0.00,,,0.00,0,Wunderground v.1.15,2013-03-12 23:01:00,
2013-03-12 19:06:00,54.8,50.1,29.76,SW,230,4.0,11.0,84,0.00,,,0.00,0,Wunderground v.1.15,2013-03-12 23:06:00,
2013-03-12 19:11:00,54.1,49.4,29.77,SW,223,4.0,5.0,84,0.00,,,0.00,0,Wunderground v.1.15,2013-03-12 23:11:00,
2013-03-12 19:16:00,53.8,49.1,29.77,North,349,3.0,10.0,84,0.00,,,0.00,0,Wunderground v.1.15,2013-03-12 23:16:00,
2013-03-12 19:21:00,53.8,49.1,29.77,WNW,300,4.0,7.0,84,0.00,,,0.00,0,Wunderground v.1.15,2013-03-12 23:21:00,
2013-03-12 19:26:00,53.6,48.9,29.77,West,276,2.0,15.0,84,0.00,,,0.00,0,Wunderground v.1.15,2013-03-12 23:26:00,
2013-03-12 19:31:00,53.6,48.9,29.77,NNW,330,2.0,6.0,84,0.00,,,0.00,0,Wunderground v.1.15,2013-03-12 23:31:00,
2013-03-12 19:36:00,53.3,48.3,29.77,NW,311,2.0,11.0,83,0.00,,,0.00,0,Wunderground v.1.15,2013-03-12 23:36:00,
2013-03-12 19:41:00,53.3,47.9,29.78,NW,311,11.0,11.0,82,0.00,,,0.00,0,Wunderground v.1.15,2013-03-12 23:41:00,
2013-03-12 19:46:00,53.2,47.8,29.78,WNW,292,4.0,15.0,82,0.00,,,0.00,0,Wunderground v.1.15,2013-03-12 23:46:00,
2013-03-12 19:51:00,53.0,47.3,29.78,West,281,7.0,7.0,81,0.00,,,0.00,0,Wunderground v.1.15,2013-03-12 23:51:00,
2013-03-12 19:57:00,52.8,47.1,29.78,NNW,339,4.0,12.0,81,0.00,,,0.00,0,Wunderground v.1.15,2013-03-12 23:57:00,
2013-03-12 20:02:00,52.6,46.9,29.78,NW,325,5.0,12.0,81,0.00,,,0.00,0,Wunderground v.1.15,2013-03-13 00:02:00,
2013-03-12 20:07:00,52.6,46.6,29.79,NW,308,5.0,12.0,80,0.00,,,0.00,0,Wunderground v.1.15,2013-03-13 00:07:00,
2013-03-12 20:12:00,52.4,46.4,29.79,NNW,333,8.0,10.0,80,0.00,,,0.00,0,Wunderground v.1.15,2013-03-13 00:12:00,
2013-03-12 20:17:00,52.4,46.1,29.79,NW,315,1.0,10.0,79,0.00,,,0.00,0,Wunderground v.1.15,2013-03-13 00:17:00,
2013-03-12 20:22:00,52.2,45.9,29.78,WSW,252,3.0,10.0,79,0.00,,,0.00,0,Wunderground v.1.15,2013-03-13 00:22:00,
2013-03-12 20:27:00,52.1,45.8,29.79,WSW,252,3.0,10.0,79,0.00,,,0.00,0,Wunderground v.1.15,2013-03-13 00:27:00,
2013-03-12 20:32:00,52.1,45.8,29.79,NNW,338,4.0,5.0,79,0.00,,,0.00,0,Wunderground v.1.15,2013-03-13 00:32:00,
2013-03-12 20:37:00,51.8,45.2,29.79,NW,309,4.0,10.0,78,0.00,,,0.00,0,Wunderground v.1.15,2013-03-13 00:37:00,
2013-03-12 20:42:00,51.6,44.6,29.79,NW,312,11.0,11.0,77,0.00,,,0.00,0,Wunderground v.1.15,2013-03-13 00:42:00,
2013-03-12 20:47:00,51.5,44.2,29.80,WNW,286,3.0,12.0,76,0.00,,,0.00,0,Wunderground v.1.15,2013-03-13 00:47:00,
2013-03-12 20:52:00,51.3,44.0,29.80,WNW,289,4.0,4.0,76,0.00,,,0.00,0,Wunderground v.1.15,2013-03-13 00:52:00,
2013-03-12 20:57:00,51.0,43.4,29.79,WNW,292,3.0,7.0,75,0.00,,,0.00,0,Wunderground v.1.15,2013-03-13 00:57:00,
2013-03-12 21:02:00,50.8,43.2,29.80,NW,314,2.0,8.0,75,0.00,,,0.00,0,Wunderground v.1.15,2013-03-13 01:02:00,
2013-03-12 21:08:00,50.5,42.9,29.80,WNW,296,1.0,9.0,75,0.00,,,0.00,0,Wunderground v.1.15,2013-03-13 01:08:00,
2013-03-12 21:13:00,50.3,42.3,29.80,SW,228,2.0,11.0,74,0.00,,,0.00,0,Wunderground v.1.15,2013-03-13 01:13:00,
2013-03-12 21:18:00,50.1,41.8,29.80,WNW,284,5.0,12.0,73,0.00,,,0.00,0,Wunderground v.1.15,2013-03-13 01:18:00,
2013-03-12 21:23:00,50.0,41.7,29.80,NW,318,8.0,10.0,73,0.00,,,0.00,0,Wunderground v.1.15,2013-03-13 01:23:00,
2013-03-12 21:28:00,49.9,41.2,29.80,West,278,4.0,11.0,72,0.00,,,0.00,0,Wunderground v.1.15,2013-03-13 01:28:00,
2013-03-12 21:34:00,49.7,41.0,29.79,WNW,298,9.0,12.0,72,0.00,,,0.00,0,Wunderground v.1.15,2013-03-13 01:34:00,
2013-03-12 21:39:00,49.8,41.1,29.79,NW,318,5.0,12.0,72,0.00,,,0.00,0,Wunderground v.1.15,2013-03-13 01:39:00,
2013-03-12 21:44:00,49.7,41.0,29.79,NW,317,6.0,16.0,72,0.00,,,0.00,0,Wunderground v.1.15,2013-03-13 01:44:00,
2013-03-12 21:49:00,49.5,40.5,29.79,NW,314,2.0,16.0,71,0.00,,,0.00,0,Wunderground v.1.15,2013-03-13 01:49:00,
2013-03-12 21:54:00,49.3,40.3,29.80,WNW,287,2.0,6.0,71,0.00,,,0.00,0,Wunderground v.1.15,2013-03-13 01:54:00,
2013-03-12 21:59:00,49.1,40.1,29.80,WNW,292,3.0,18.0,71,0.00,,,0.00,0,Wunderground v.1.15,2013-03-13 01:59:00,
2013-03-12 22:04:00,49.0,39.6,29.80,SW,236,6.0,14.0,70,0.00,,,0.00,0,Wunderground v.1.15,2013-03-13 02:04:00,
2013-03-12 22:09:00,48.9,39.5,29.81,NW,311,1.0,14.0,70,0.00,,,0.00,0,Wunderground v.1.15,2013-03-13 02:09:00,
2013-03-12 22:14:00,48.7,39.4,29.81,NW,317,7.0,9.0,70,0.00,,,0.00,0,Wunderground v.1.15,2013-03-13 02:14:00,
2013-03-12 22:19:00,48.6,39.6,29.82,NW,326,2.0,9.0,71,0.00,,,0.00,0,Wunderground v.1.15,2013-03-13 02:19:00,
2013-03-12 22:24:00,48.4,39.4,29.82,NNW,332,1.0,7.0,71,0.00,,,0.00,0,Wunderground v.1.15,2013-03-13 02:24:00,
2013-03-12 22:29:00,48.2,39.2,29.82,NW,314,1.0,7.0,71,0.00,,,0.00,0,Wunderground v.1.15,2013-03-13 02:29:00,
2013-03-12 22:34:00,47.7,38.8,29.83,NW,306,1.0,5.0,71,0.00,,,0.00,0,Wunderground v.1.15,2013-03-13 02:34:00,
2013-03-12 22:39:00,47.5,38.6,29.82,NNW,337,1.0,7.0,71,0.00,,,0.00,0,Wunderground v.1.15,2013-03-13 02:39:00,
2013-03-12 22:44:00,47.4,38.8,29.83,NW,305,0.0,6.0,72,0.00,,,0.00,0,Wunderground v.1.15,2013-03-13 02:44:00,
2013-03-12 22:49:00,47.0,38.4,29.83,SW,223,3.0,9.0,72,0.00,,,0.00,0,Wunderground v.1.15,2013-03-13 02:49:00,
2013-03-12 22:54:00,46.8,38.2,29.83,West,280,0.0,7.0,72,0.00,,,0.00,0,Wunderground v.1.15,2013-03-13 02:54:00,
2013-03-12 22:59:00,46.7,38.1,29.82,WNW,302,3.0,7.0,72,0.00,,,0.00,0,Wunderground v.1.15,2013-03-13 02:59:00,
2013-03-12 23:04:00,46.5,38.0,29.83,WNW,295,4.0,5.0,72,0.00,,,0.00,0,Wunderground v.1.15,2013-03-13 03:04:00,
2013-03-12 23:09:00,46.3,38.5,29.83,WNW,282,1.0,5.0,74,0.00,,,0.00,0,Wunderground v.1.15,2013-03-13 03:09:00,
2013-03-12 23:14:00,46.1,38.6,29.83,NW,317,1.0,6.0,75,0.00,,,0.00,0,Wunderground v.1.15,2013-03-13 03:14:00,
2013-03-12 23:19:00,46.0,38.5,29.83,NW,318,0.0,6.0,75,0.00,,,0.00,0,Wunderground v.1.15,2013-03-13 03:19:00,
2013-03-12 23:24:00,45.9,38.4,29.83,NW,322,1.0,7.0,75,0.00,,,0.00,0,Wunderground v.1.15,2013-03-13 03:24:00,
2013-03-12 23:29:00,46.0,38.5,29.83,NW,321,1.0,7.0,75,0.00,,,0.00,0,Wunderground v.1.15,2013-03-13 03:29:00,
2013-03-12 23:34:00,45.9,38.4,29.84,NW,321,0.0,2.0,75,0.00,,,0.00,0,Wunderground v.1.15,2013-03-13 03:34:00,
2013-03-12 23:39:00,46.0,38.5,29.84,NW,321,0.0,3.0,75,0.00,,,0.00,0,Wunderground v.1.15,2013-03-13 03:39:00,
2013-03-12 23:44:00,45.8,38.7,29.84,NW,321,0.0,3.0,76,0.00,,,0.00,0,Wunderground v.1.15,2013-03-13 03:44:00,
2013-03-12 23:49:00,45.7,38.6,29.84,West,281,3.0,5.0,76,0.00,,,0.00,0,Wunderground v.1.15,2013-03-13 03:49:00,
2013-03-12 23:54:00,45.7,38.6,29.83,West,276,1.0,5.0,76,0.00,,,0.00,0,Wunderground v.1.15,2013-03-13 03:54:00,
2013-03-12 23:59:00,46.0,38.9,29.84,NNW,344,2.0,7.0,76,0.00,,,0.00,0,Wunderground v.1.15,2013-03-13 03:59:00,